Osceola, IA (50213)

1:40 AM CST on February 09, 2016 (GMT -0600)
Osceola Municipal | | Change Station
CLOSE
Current Station
Airport
Location: Osceola Municipal,
Elevation: 1109 ft
Nearby Weather Stations

Elev 1109 ft 41.05 °N, 93.69 °W | Updated 25 minutes ago

Snow
Snow
15 °F
Feels Like 1 °F
N
14
Wind Variable Wind from NW
Gusts 18 mph

Today
High -- | Low -- °F
--% Chance of Precip.
Yesterday
High -- | Low -- °F
Precip. -- in
Pressure 29.99 in
Visibility 4.0 miles
Clouds Scattered Clouds 800 ft
Mostly Cloudy 1700 ft
Overcast 2500 ft
Windchill 1 °F
Dew Point 11 °F
Humidity 83%
Rainfall 0.00 in
Snow Depth Not available.
7:17 AM 5:41 PM
New Moon, 1% visible
METAR KI75 090715Z AUTO 32012G16KT 4SM -SN SCT008 BKN017 OVC025 M09/M12 A2999 RMK AO2 T10921116
Pressure 29.99 in
Visibility 4.0 miles
Clouds Scattered Clouds 800 ft
Mostly Cloudy 1700 ft
Overcast 2500 ft
Windchill 1 °F
Dew Point 11 °F
Humidity 83%
Rainfall 0.00 in
Snow Depth Not available.
7:17 AM 5:41 PM
New Moon, 1% visible
METAR KI75 090715Z AUTO 32012G16KT 4SM -SN SCT008 BKN017 OVC025 M09/M12 A2999 RMK AO2 T10921116

10-Day Weather Forecast

Almanac

Astronomy

Feb. 09, 2016 Rise Set
Actual Time
Civil Twilight
Nautical Twilight
Astronomical Twilight
Moon
Length of Visible Light
Length of Day
Tomorrow will be .
, % of the Moon is Illuminated

Today's Extremes

State Highs State Lows

Community

WunderPhotos

Upload Photos

1,891,571 photos uploaded!

WunderBlog® & News

Nearby

Air Quality

  Air Quality AQ Index Pollutant
Not available.

Snow Depth

Station Depth Elevation

Earthquake Activity

City Distance Mag. Time & Date
Minimum magnitude displayed is 2.5.

Coastal Water Temperatures

Place Temperature

Stations

Nearby Weather Stations

Station Location Temp. Windchill Dew Point Humidity Wind Precip. Elev Updated Type
                   

Watches & Warnings

There are currently no watches in effect.